{"data":{"norad_id":33153,"epoch":"2026-05-25T02:28:52.767264Z","epoch_age_seconds":62556,"freshness":"FRESH","line1":"1 33153U 08034A   26145.10338851  .00000063  00000+0  00000+0 0  9994","line2":"2 33153   2.6510  80.5796 0001472   9.2650  54.8394  0.99033070 65467","mean_motion":0.9903307,"eccentricity":0.0001472,"inclination_deg":2.651,"raan_deg":80.5796,"arg_perigee_deg":9.265,"mean_anomaly_deg":54.8394,"bstar":0,"rev_number":6546,"period_min":1454.0597398425,"perigee_km":36131.208036454,"apogee_km":36143.724630075,"semimajor_km":42515.603333265,"source":"CELESTRAK","updated_at":"2026-05-25T13:38:14.327438Z"}}